Time,TemperatureF,DewpointF,PressureIn,WindDirection,WindDirectionDegrees,WindSpeedMPH,WindSpeedGustMPH,Humidity,HourlyPrecipIn,Conditions,Clouds,dailyrainin,SolarRadiationWatts/m^2,SoftwareType,DateUTC
2013-10-01 00:02:00,64.0,51.6,29.57,SSE,160,8.0,12.0,64,0.00,,---,0.00,0.00,VWS V14.01,2013-10-01 05:02:00,
2013-10-01 00:05:00,64.0,51.2,29.57,SSE,154,9.0,13.0,63,0.00,,---,0.00,0.00,VWS V14.01,2013-10-01 05:05:00,
2013-10-01 00:07:00,64.2,51.4,29.57,SSE,150,10.0,13.0,63,0.00,,---,0.00,0.00,VWS V14.01,2013-10-01 05:07:00,
2013-10-01 00:08:00,64.2,51.4,29.57,SSE,164,12.0,14.0,63,0.00,,---,0.00,0.00,VWS V14.01,2013-10-01 05:08:00,
2013-10-01 00:10:00,64.3,51.5,29.57,SSE,154,7.0,14.0,63,0.00,,---,0.00,0.00,VWS V14.01,2013-10-01 05:10:00,
2013-10-01 00:13:00,64.3,51.5,29.57,SSE,164,7.0,13.0,63,0.00,,---,0.00,0.00,VWS V14.01,2013-10-01 05:13:00,
2013-10-01 00:15:00,64.3,51.5,29.57,South,172,10.0,13.0,63,0.00,,---,0.00,0.00,VWS V14.01,2013-10-01 05:15:00,
2013-10-01 00:18:00,64.3,51.5,29.57,SSE,150,9.0,14.0,63,0.00,,---,0.00,0.00,VWS V14.01,2013-10-01 05:18:00,
2013-10-01 00:20:00,64.5,51.2,29.57,South,184,8.0,14.0,62,0.00,,---,0.00,0.00,VWS V14.01,2013-10-01 05:20:00,
2013-10-01 00:23:00,64.5,51.2,29.57,SSE,165,6.0,14.0,62,0.00,,---,0.00,0.00,VWS V14.01,2013-10-01 05:23:00,
2013-10-01 00:24:00,64.7,51.4,29.57,SSE,155,11.0,14.0,62,0.00,,---,0.00,0.00,VWS V14.01,2013-10-01 05:24:00,
2013-10-01 00:25:00,64.7,51.4,29.57,SSE,157,11.0,14.0,62,0.00,,---,0.00,0.00,VWS V14.01,2013-10-01 05:25:00,
2013-10-01 00:29:00,64.7,51.4,29.57,South,176,7.0,12.0,62,0.00,,---,0.00,0.00,VWS V14.01,2013-10-01 05:29:00,
2013-10-01 00:30:00,64.7,51.4,29.57,South,189,10.0,12.0,62,0.00,,---,0.00,0.00,VWS V14.01,2013-10-01 05:30:00,
2013-10-01 00:35:00,64.7,51.4,29.57,SSE,168,9.0,12.0,62,0.00,,---,0.00,0.00,VWS V14.01,2013-10-01 05:35:00,
2013-10-01 00:40:00,64.5,51.6,29.57,SSE,164,7.0,15.0,63,0.00,,---,0.00,0.00,VWS V14.01,2013-10-01 05:40:00,
2013-10-01 00:45:00,64.3,51.5,29.57,SSE,168,6.0,12.0,63,0.00,,---,0.00,0.00,VWS V14.01,2013-10-01 05:45:00,
2013-10-01 00:50:00,64.2,51.8,29.57,SSE,164,7.0,13.0,64,0.00,,---,0.00,0.00,VWS V14.01,2013-10-01 05:50:00,
2013-10-01 00:55:00,64.0,51.6,29.57,South,176,11.0,14.0,64,0.00,,---,0.00,0.00,VWS V14.01,2013-10-01 05:55:00,
2013-10-01 01:00:00,63.9,51.5,29.57,SSE,168,7.0,12.0,64,0.00,,---,0.00,0.00,VWS V14.01,2013-10-01 06:00:00,
2013-10-01 01:05:00,63.9,51.9,29.57,SSE,167,11.0,11.0,65,0.00,,---,0.00,0.00,VWS V14.01,2013-10-01 06:05:00,
2013-10-01 01:10:00,63.9,51.5,29.57,South,171,8.0,13.0,64,0.00,,---,0.00,0.00,VWS V14.01,2013-10-01 06:10:00,
2013-10-01 01:11:00,64.0,51.6,29.57,South,169,10.0,10.0,64,0.00,,---,0.00,0.00,VWS V14.01,2013-10-01 06:11:00,
2013-10-01 01:15:00,64.0,51.2,29.57,SSE,168,11.0,12.0,63,0.00,,---,0.00,0.00,VWS V14.01,2013-10-01 06:15:00,
2013-10-01 01:16:00,64.0,51.2,29.57,SSE,168,10.0,11.0,63,0.00,,---,0.00,0.00,VWS V14.01,2013-10-01 06:16:00,
2013-10-01 01:20:00,64.2,51.4,29.57,SSW,193,8.0,13.0,63,0.00,,---,0.00,0.00,VWS V14.01,2013-10-01 06:20:00,
2013-10-01 01:21:00,64.2,51.4,29.57,South,172,7.0,11.0,63,0.00,,---,0.00,0.00,VWS V14.01,2013-10-01 06:21:00,
2013-10-01 01:25:00,64.0,51.2,29.57,South,189,10.0,12.0,63,0.00,,---,0.00,0.00,VWS V14.01,2013-10-01 06:25:00,
2013-10-01 01:26:00,64.0,51.2,29.57,South,191,8.0,11.0,63,0.00,,---,0.00,0.00,VWS V14.01,2013-10-01 06:26:00,
2013-10-01 01:30:00,64.0,51.2,29.57,South,191,10.0,12.0,63,0.00,,---,0.00,0.00,VWS V14.01,2013-10-01 06:30:00,
2013-10-01 01:31:00,64.0,51.2,29.57,South,191,8.0,12.0,63,0.00,,---,0.00,0.00,VWS V14.01,2013-10-01 06:31:00,
2013-10-01 01:32:00,64.0,51.2,29.57,SSW,192,6.0,12.0,63,0.00,,---,0.00,0.00,VWS V14.01,2013-10-01 06:32:00,
2013-10-01 01:35:00,64.0,51.2,29.57,South,191,10.0,12.0,63,0.00,,---,0.00,0.00,VWS V14.01,2013-10-01 06:35:00,
2013-10-01 01:37:00,64.0,51.2,29.57,SSW,196,9.0,11.0,63,0.00,,---,0.00,0.00,VWS V14.01,2013-10-01 06:37:00,
2013-10-01 01:40:00,63.9,51.5,29.57,South,191,8.0,12.0,64,0.00,,---,0.00,0.00,VWS V14.01,2013-10-01 06:40:00,
2013-10-01 01:42:00,63.9,51.5,29.57,SSW,196,11.0,11.0,64,0.00,,---,0.00,0.00,VWS V14.01,2013-10-01 06:42:00,
2013-10-01 01:45:00,63.9,51.5,29.57,WSW,251,6.0,13.0,64,0.00,,---,0.00,0.00,VWS V14.01,2013-10-01 06:45:00,
2013-10-01 01:50:00,63.9,51.5,29.57,South,191,10.0,13.0,64,0.00,,---,0.00,0.00,VWS V14.01,2013-10-01 06:50:00,
2013-10-01 01:52:00,63.9,51.5,29.57,SSW,192,12.0,12.0,64,0.00,,---,0.00,0.00,VWS V14.01,2013-10-01 06:52:00,
2013-10-01 01:55:00,63.9,51.5,29.57,South,191,7.0,12.0,64,0.00,,---,0.00,0.00,VWS V14.01,2013-10-01 06:55:00,
2013-10-01 01:57:00,63.7,51.3,29.57,South,191,7.0,12.0,64,0.00,,---,0.00,0.00,VWS V14.01,2013-10-01 06:57:00,
2013-10-01 02:00:00,63.7,51.3,29.58,WNW,298,6.0,12.0,64,0.00,,---,0.00,0.00,VWS V14.01,2013-10-01 07:00:00,
2013-10-01 02:03:00,63.7,51.3,29.58,SSW,209,5.0,11.0,64,0.00,,---,0.00,0.00,VWS V14.01,2013-10-01 07:03:00,
2013-10-01 02:05:00,63.5,51.1,29.58,South,191,6.0,11.0,64,0.00,,---,0.00,0.00,VWS V14.01,2013-10-01 07:05:00,
2013-10-01 02:08:00,63.4,51.0,29.58,South,191,9.0,10.0,64,0.00,,---,0.00,0.00,VWS V14.01,2013-10-01 07:08:00,
2013-10-01 02:10:00,63.4,51.0,29.58,South,169,10.0,10.0,64,0.00,,---,0.00,0.00,VWS V14.01,2013-10-01 07:10:00,
2013-10-01 02:13:00,63.2,50.8,29.58,South,186,6.0,10.0,64,0.00,,---,0.00,0.00,VWS V14.01,2013-10-01 07:13:00,
2013-10-01 02:15:00,63.2,50.8,29.58,South,189,7.0,10.0,64,0.00,,---,0.00,0.00,VWS V14.01,2013-10-01 07:15:00,
2013-10-01 02:18:00,63.2,50.8,29.58,South,169,5.0,10.0,64,0.00,,---,0.00,0.00,VWS V14.01,2013-10-01 07:18:00,
2013-10-01 02:20:00,63.2,50.8,29.58,South,189,5.0,10.0,64,0.00,,---,0.00,0.00,VWS V14.01,2013-10-01 07:20:00,
2013-10-01 02:23:00,63.2,50.8,29.58,NW,316,3.0,7.0,64,0.00,,---,0.00,0.00,VWS V14.01,2013-10-01 07:23:00,
2013-10-01 02:25:00,63.1,50.7,29.58,SSW,195,5.0,8.0,64,0.00,,---,0.00,0.00,VWS V14.01,2013-10-01 07:25:00,
2013-10-01 02:28:00,62.9,51.0,29.58,NNW,347,5.0,8.0,65,0.00,,---,0.00,0.00,VWS V14.01,2013-10-01 07:28:00,
2013-10-01 02:30:00,62.9,51.0,29.58,SSW,192,6.0,8.0,65,0.00,,---,0.00,0.00,VWS V14.01,2013-10-01 07:30:00,
2013-10-01 02:33:00,62.7,50.8,29.58,South,175,6.0,8.0,65,0.00,,---,0.00,0.00,VWS V14.01,2013-10-01 07:33:00,
2013-10-01 02:35:00,62.7,50.8,29.58,SW,217,6.0,8.0,65,0.00,,---,0.00,0.00,VWS V14.01,2013-10-01 07:35:00,
2013-10-01 02:39:00,62.7,50.8,29.58,South,191,6.0,11.0,65,0.00,,---,0.00,0.00,VWS V14.01,2013-10-01 07:39:00,
2013-10-01 02:40:00,62.6,50.7,29.58,SSW,192,6.0,11.0,65,0.00,,---,0.00,0.00,VWS V14.01,2013-10-01 07:40:00,
2013-10-01 02:44:00,62.6,50.7,29.58,South,175,7.0,10.0,65,0.00,,---,0.00,0.00,VWS V14.01,2013-10-01 07:44:00,
2013-10-01 02:49:00,62.6,50.7,29.58,South,191,7.0,11.0,65,0.00,,---,0.00,0.00,VWS V14.01,2013-10-01 07:49:00,
2013-10-01 02:50:00,62.4,50.5,29.58,SSW,199,7.0,11.0,65,0.00,,---,0.00,0.00,VWS V14.01,2013-10-01 07:50:00,
2013-10-01 02:54:00,62.3,50.4,29.58,South,189,11.0,11.0,65,0.00,,---,0.00,0.00,VWS V14.01,2013-10-01 07:54:00,
2013-10-01 02:55:00,62.3,50.4,29.58,South,189,8.0,11.0,65,0.00,,---,0.00,0.00,VWS V14.01,2013-10-01 07:55:00,
2013-10-01 02:59:00,62.3,50.4,29.58,South,191,8.0,11.0,65,0.00,,---,0.00,0.00,VWS V14.01,2013-10-01 07:59:00,
2013-10-01 03:00:00,62.3,50.4,29.58,SSW,192,9.0,11.0,65,0.00,,---,0.00,0.00,VWS V14.01,2013-10-01 08:00:00,
2013-10-01 03:04:00,62.3,50.4,29.58,South,191,8.0,11.0,65,0.00,,---,0.00,0.00,VWS V14.01,2013-10-01 08:04:00,
2013-10-01 03:05:00,62.3,50.4,29.58,South,191,8.0,11.0,65,0.00,,---,0.00,0.00,VWS V14.01,2013-10-01 08:05:00,
2013-10-01 03:10:00,62.1,50.2,29.58,South,189,11.0,11.0,65,0.00,,---,0.00,0.00,VWS V14.01,2013-10-01 08:10:00,
2013-10-01 03:15:00,62.1,50.2,29.58,South,191,11.0,12.0,65,0.00,,---,0.00,0.00,VWS V14.01,2013-10-01 08:15:00,
2013-10-01 03:20:00,62.0,50.1,29.58,South,191,9.0,9.0,65,0.00,,---,0.00,0.00,VWS V14.01,2013-10-01 08:20:00,
2013-10-01 03:25:00,61.8,49.9,29.58,South,189,11.0,11.0,65,0.00,,---,0.00,0.00,VWS V14.01,2013-10-01 08:25:00,
2013-10-01 03:30:00,62.0,50.1,29.58,NNW,329,12.0,12.0,65,0.00,,---,0.00,0.00,VWS V14.01,2013-10-01 08:30:00,
2013-10-01 03:35:00,62.0,50.1,29.58,South,189,7.0,10.0,65,0.00,,---,0.00,0.00,VWS V14.01,2013-10-01 08:35:00,
2013-10-01 03:40:00,62.0,50.1,29.58,South,189,9.0,14.0,65,0.00,,---,0.00,0.00,VWS V14.01,2013-10-01 08:40:00,
2013-10-01 03:41:00,62.1,50.2,29.58,South,191,11.0,12.0,65,0.00,,---,0.00,0.00,VWS V14.01,2013-10-01 08:41:00,
2013-10-01 03:45:00,62.1,50.2,29.58,South,191,11.0,14.0,65,0.00,,---,0.00,0.00,VWS V14.01,2013-10-01 08:45:00,
2013-10-01 03:46:00,62.1,50.2,29.58,SSW,192,14.0,14.0,65,0.00,,---,0.00,0.00,VWS V14.01,2013-10-01 08:46:00,
2013-10-01 03:50:00,62.1,50.2,29.58,SSW,195,13.0,14.0,65,0.00,,---,0.00,0.00,VWS V14.01,2013-10-01 08:50:00,
2013-10-01 03:51:00,62.1,50.2,29.58,South,189,12.0,13.0,65,0.00,,---,0.00,0.00,VWS V14.01,2013-10-01 08:51:00,
2013-10-01 03:55:00,62.3,50.4,29.58,SSW,196,7.0,15.0,65,0.00,,---,0.00,0.00,VWS V14.01,2013-10-01 08:55:00,
2013-10-01 03:56:00,62.3,50.4,29.58,South,191,13.0,13.0,65,0.00,,---,0.00,0.00,VWS V14.01,2013-10-01 08:56:00,
2013-10-01 04:00:00,62.3,50.4,29.58,SSW,212,10.0,16.0,65,0.00,,---,0.00,0.00,VWS V14.01,2013-10-01 09:00:00,
2013-10-01 04:01:00,62.3,50.4,29.58,SSW,198,11.0,13.0,65,0.00,,---,0.00,0.00,VWS V14.01,2013-10-01 09:01:00,
2013-10-01 04:05:00,62.4,50.5,29.58,South,191,11.0,16.0,65,0.00,,---,0.00,0.00,VWS V14.01,2013-10-01 09:05:00,
2013-10-01 04:06:00,62.4,50.5,29.58,WNW,285,12.0,14.0,65,0.00,,---,0.00,0.00,VWS V14.01,2013-10-01 09:06:00,
2013-10-01 04:10:00,62.4,50.5,29.58,South,191,10.0,18.0,65,0.00,,---,0.00,0.00,VWS V14.01,2013-10-01 09:10:00,
2013-10-01 04:11:00,62.4,50.5,29.58,South,191,13.0,17.0,65,0.00,,---,0.00,0.00,VWS V14.01,2013-10-01 09:11:00,
2013-10-01 04:15:00,62.6,50.3,29.57,SSW,199,12.0,17.0,64,0.00,,---,0.00,0.00,VWS V14.01,2013-10-01 09:15:00,
2013-10-01 04:16:00,62.6,50.7,29.57,South,189,12.0,14.0,65,0.00,,---,0.00,0.00,VWS V14.01,2013-10-01 09:16:00,
2013-10-01 04:20:00,62.6,50.7,29.57,SW,217,12.0,17.0,65,0.00,,---,0.00,0.00,VWS V14.01,2013-10-01 09:20:00,
2013-10-01 04:22:00,62.6,50.7,29.57,SSW,205,12.0,16.0,65,0.00,,---,0.00,0.00,VWS V14.01,2013-10-01 09:22:00,
2013-10-01 04:25:00,62.6,50.7,29.57,NNW,339,10.0,16.0,65,0.00,,---,0.00,0.00,VWS V14.01,2013-10-01 09:25:00,
2013-10-01 04:34:00,62.6,50.7,29.57,South,189,13.0,13.0,65,0.00,,---,0.00,0.00,VWS V14.01,2013-10-01 09:34:00,
2013-10-01 04:39:00,62.6,50.7,29.57,SSW,193,10.0,16.0,65,0.00,,---,0.00,0.00,VWS V14.01,2013-10-01 09:39:00,
2013-10-01 04:44:00,62.7,50.8,29.57,South,189,13.0,16.0,65,0.00,,---,0.00,0.00,VWS V14.01,2013-10-01 09:44:00,
2013-10-01 04:49:00,62.6,50.7,29.57,WNW,299,12.0,17.0,65,0.00,,---,0.00,0.00,VWS V14.01,2013-10-01 09:49:00,
2013-10-01 04:55:00,62.4,50.5,29.57,SSW,192,11.0,14.0,65,0.00,,---,0.00,0.00,VWS V14.01,2013-10-01 09:55:00,
2013-10-01 05:00:00,62.3,50.8,29.58,SW,226,12.0,14.0,66,0.00,,---,0.00,0.00,VWS V14.01,2013-10-01 10:00:00,
2013-10-01 05:05:00,62.3,50.8,29.58,South,191,11.0,16.0,66,0.00,,---,0.00,0.00,VWS V14.01,2013-10-01 10:05:00,
2013-10-01 05:10:00,62.1,50.6,29.58,South,191,13.0,16.0,66,0.00,,---,0.00,0.00,VWS V14.01,2013-10-01 10:10:00,
2013-10-01 05:15:00,62.1,50.6,29.59,NW,318,10.0,17.0,66,0.00,,---,0.00,0.00,VWS V14.01,2013-10-01 10:15:00,
2013-10-01 05:20:00,62.1,50.6,29.59,SSW,192,11.0,17.0,66,0.00,,---,0.00,0.00,VWS V14.01,2013-10-01 10:20:00,
2013-10-01 05:25:00,62.0,50.5,29.59,SSW,193,10.0,11.0,66,0.00,,---,0.00,0.00,VWS V14.01,2013-10-01 10:25:00,
2013-10-01 05:30:00,62.0,50.5,29.59,West,277,8.0,10.0,66,0.00,,---,0.00,0.00,VWS V14.01,2013-10-01 10:30:00,
2013-10-01 05:36:00,62.1,50.6,29.59,SSW,193,14.0,14.0,66,0.00,,---,0.00,0.00,VWS V14.01,2013-10-01 10:36:00,
2013-10-01 05:41:00,62.0,50.5,29.59,SSW,205,11.0,12.0,66,0.00,,---,0.00,0.00,VWS V14.01,2013-10-01 10:41:00,
2013-10-01 05:46:00,61.8,50.7,29.59,South,184,11.0,13.0,67,0.00,,---,0.00,0.00,VWS V14.01,2013-10-01 10:46:00,
2013-10-01 05:51:00,61.6,50.5,29.59,South,181,9.0,12.0,67,0.00,,---,0.00,0.00,VWS V14.01,2013-10-01 10:51:00,
2013-10-01 05:56:00,61.2,51.0,29.59,South,181,12.0,12.0,69,0.00,,---,0.00,0.00,VWS V14.01,2013-10-01 10:56:00,
2013-10-01 06:01:00,60.9,50.7,29.60,SSE,167,5.0,12.0,69,0.00,,---,0.00,0.00,VWS V14.01,2013-10-01 11:01:00,
2013-10-01 06:06:00,60.5,50.7,29.60,SSE,168,6.0,10.0,70,0.00,,---,0.00,0.00,VWS V14.01,2013-10-01 11:06:00,
2013-10-01 06:11:00,60.2,50.8,29.60,South,169,5.0,10.0,71,0.00,,---,0.00,0.00,VWS V14.01,2013-10-01 11:11:00,
2013-10-01 06:16:00,60.1,50.7,29.61,SSE,164,5.0,10.0,71,0.00,,---,0.00,0.00,VWS V14.01,2013-10-01 11:16:00,
2013-10-01 06:21:00,59.8,50.8,29.61,South,184,7.0,10.0,72,0.00,,---,0.00,0.00,VWS V14.01,2013-10-01 11:21:00,
2013-10-01 06:27:00,59.5,50.5,29.61,SSE,165,8.0,10.0,72,0.00,,---,0.00,0.00,VWS V14.01,2013-10-01 11:27:00,
2013-10-01 06:32:00,59.3,50.7,29.62,South,169,7.0,8.0,73,0.00,,---,0.00,0.00,VWS V14.01,2013-10-01 11:32:00,
2013-10-01 06:37:00,59.0,50.4,29.62,SSE,164,6.0,7.0,73,0.00,,---,0.00,0.00,VWS V14.01,2013-10-01 11:37:00,
2013-10-01 06:42:00,58.9,50.6,29.62,SSE,167,6.0,7.0,74,0.00,,---,0.00,0.00,VWS V14.01,2013-10-01 11:42:00,
2013-10-01 06:47:00,58.9,50.6,29.62,SSE,161,6.0,8.0,74,0.00,,---,0.00,0.00,VWS V14.01,2013-10-01 11:47:00,
2013-10-01 06:52:00,58.9,50.6,29.62,SW,216,7.0,8.0,74,0.00,,---,0.00,0.00,VWS V14.01,2013-10-01 11:52:00,
2013-10-01 06:57:00,58.7,50.5,29.62,SSE,160,6.0,8.0,74,0.00,,---,0.00,0.00,VWS V14.01,2013-10-01 11:57:00,
2013-10-01 07:03:00,58.7,50.5,29.62,SSE,164,4.0,8.0,74,0.00,,---,0.00,0.00,VWS V14.01,2013-10-01 12:03:00,
2013-10-01 07:08:00,58.6,50.3,29.62,SSE,168,5.0,7.0,74,0.00,,---,0.00,0.00,VWS V14.01,2013-10-01 12:08:00,
2013-10-01 07:13:00,58.4,50.5,29.62,SSE,165,5.0,8.0,75,0.00,,---,0.00,0.00,VWS V14.01,2013-10-01 12:13:00,
2013-10-01 07:18:00,58.3,50.4,29.64,SSE,164,5.0,8.0,75,0.00,,---,0.00,0.00,VWS V14.01,2013-10-01 12:18:00,
2013-10-01 07:23:00,58.1,50.2,29.64,South,185,7.0,11.0,75,0.00,,---,0.00,0.00,VWS V14.01,2013-10-01 12:23:00,
2013-10-01 07:28:00,58.0,50.5,29.64,SSE,167,6.0,11.0,76,0.00,,---,0.00,0.00,VWS V14.01,2013-10-01 12:28:00,
2013-10-01 07:33:00,58.0,50.1,29.64,South,169,8.0,10.0,75,0.00,,---,0.00,0.00,VWS V14.01,2013-10-01 12:33:00,
2013-10-01 07:38:00,58.1,50.2,29.64,SSE,168,7.0,9.0,75,0.00,,---,0.00,7.00,VWS V14.01,2013-10-01 12:38:00,
2013-10-01 07:43:00,58.1,50.2,29.64,SSE,161,5.0,8.0,75,0.00,,---,0.00,21.00,VWS V14.01,2013-10-01 12:43:00,
2013-10-01 07:48:00,58.3,50.4,29.64,South,171,6.0,7.0,75,0.00,,---,0.00,28.00,VWS V14.01,2013-10-01 12:48:00,
2013-10-01 07:54:00,58.3,50.4,29.64,SSW,195,3.0,6.0,75,0.00,,---,0.00,37.00,VWS V14.01,2013-10-01 12:54:00,
2013-10-01 07:59:00,58.6,50.7,29.64,SSW,193,5.0,6.0,75,0.00,,---,0.00,51.00,VWS V14.01,2013-10-01 12:59:00,
2013-10-01 08:04:00,58.9,50.6,29.66,South,191,4.0,6.0,74,0.00,,---,0.00,77.00,VWS V14.01,2013-10-01 13:04:00,
2013-10-01 08:09:00,59.3,50.7,29.66,SSW,192,4.0,8.0,73,0.00,,---,0.00,72.00,VWS V14.01,2013-10-01 13:09:00,
2013-10-01 08:14:00,59.6,50.6,29.66,SSW,192,4.0,6.0,72,0.00,,---,0.00,95.00,VWS V14.01,2013-10-01 13:14:00,
2013-10-01 08:19:00,60.1,51.1,29.67,SSW,198,4.0,8.0,72,0.00,,---,0.00,109.00,VWS V14.01,2013-10-01 13:19:00,
2013-10-01 08:24:00,60.5,51.1,29.67,SW,216,4.0,8.0,71,0.00,,---,0.00,123.00,VWS V14.01,2013-10-01 13:24:00,
2013-10-01 08:30:00,61.2,51.3,29.67,NW,316,5.0,7.0,70,0.00,,---,0.00,137.00,VWS V14.01,2013-10-01 13:30:00,
2013-10-01 08:35:00,61.8,51.5,29.67,SSW,193,7.0,8.0,69,0.00,,---,0.00,153.00,VWS V14.01,2013-10-01 13:35:00,
2013-10-01 08:40:00,62.4,51.7,29.67,SSW,212,6.0,8.0,68,0.00,,---,0.00,181.00,VWS V14.01,2013-10-01 13:40:00,
2013-10-01 08:45:00,63.1,52.0,29.68,SW,222,5.0,7.0,67,0.00,,---,0.00,197.00,VWS V14.01,2013-10-01 13:45:00,
2013-10-01 08:50:00,63.7,51.7,29.68,SW,222,3.0,7.0,65,0.00,,---,0.00,211.00,VWS V14.01,2013-10-01 13:50:00,
2013-10-01 08:55:00,64.2,52.2,29.68,SW,236,2.0,2.0,65,0.00,,---,0.00,227.00,VWS V14.01,2013-10-01 13:55:00,
2013-10-01 09:01:00,64.5,52.5,29.69,SW,236,1.0,1.0,65,0.00,,---,0.00,243.00,VWS V14.01,2013-10-01 14:01:00,
2013-10-01 09:06:00,65.0,52.1,29.69,SW,236,4.0,5.0,63,0.00,,---,0.00,260.00,VWS V14.01,2013-10-01 14:06:00,
2013-10-01 09:11:00,65.6,52.2,29.69,SW,226,5.0,6.0,62,0.00,,---,0.00,264.00,VWS V14.01,2013-10-01 14:11:00,
2013-10-01 09:16:00,66.1,51.8,29.69,SW,217,6.0,7.0,60,0.00,,---,0.00,282.00,VWS V14.01,2013-10-01 14:16:00,
2013-10-01 09:21:00,66.6,52.3,29.69,SW,219,5.0,5.0,60,0.00,,---,0.00,296.00,VWS V14.01,2013-10-01 14:21:00,
2013-10-01 09:26:00,66.9,52.6,29.69,SW,222,5.0,5.0,60,0.00,,---,0.00,310.00,VWS V14.01,2013-10-01 14:26:00,
2013-10-01 09:31:00,67.6,52.3,29.69,SW,223,3.0,6.0,58,0.00,,---,0.00,326.00,VWS V14.01,2013-10-01 14:31:00,
2013-10-01 09:36:00,68.3,53.0,29.69,SW,222,5.0,5.0,58,0.00,,---,0.00,340.00,VWS V14.01,2013-10-01 14:36:00,
2013-10-01 09:41:00,68.8,53.0,29.69,SW,227,3.0,5.0,57,0.00,,---,0.00,371.00,VWS V14.01,2013-10-01 14:41:00,
2013-10-01 09:47:00,69.4,53.0,29.69,SW,230,7.0,7.0,56,0.00,,---,0.00,385.00,VWS V14.01,2013-10-01 14:47:00,
2013-10-01 09:52:00,69.8,52.9,29.69,WSW,256,7.0,11.0,55,0.00,,---,0.00,401.00,VWS V14.01,2013-10-01 14:52:00,
2013-10-01 09:57:00,70.1,52.7,29.69,SW,236,6.0,7.0,54,0.00,,---,0.00,415.00,VWS V14.01,2013-10-01 14:57:00,
2013-10-01 10:02:00,70.4,53.5,29.70,WNW,292,5.0,6.0,55,0.00,,---,0.00,429.00,VWS V14.01,2013-10-01 15:02:00,
2013-10-01 10:07:00,70.6,53.2,29.70,WNW,284,2.0,4.0,54,0.00,,---,0.00,431.00,VWS V14.01,2013-10-01 15:07:00,
2013-10-01 10:12:00,70.6,53.2,29.70,WSW,248,4.0,6.0,54,0.00,,---,0.00,447.00,VWS V14.01,2013-10-01 15:12:00,
2013-10-01 10:18:00,70.9,52.9,29.70,WSW,248,2.0,7.0,53,0.00,,---,0.00,461.00,VWS V14.01,2013-10-01 15:18:00,
2013-10-01 10:23:00,71.3,52.8,29.70,SW,233,3.0,7.0,52,0.00,,---,0.00,475.00,VWS V14.01,2013-10-01 15:23:00,
2013-10-01 10:28:00,71.8,53.8,29.70,WSW,241,7.0,7.0,53,0.00,,---,0.00,489.00,VWS V14.01,2013-10-01 15:28:00,
2013-10-01 10:34:00,72.1,53.5,29.71,SW,227,5.0,7.0,52,0.00,,---,0.00,500.00,VWS V14.01,2013-10-01 15:34:00,
2013-10-01 10:39:00,72.3,53.7,29.71,WSW,240,4.0,8.0,52,0.00,,---,0.00,512.00,VWS V14.01,2013-10-01 15:39:00,
2013-10-01 10:44:00,72.8,53.6,29.71,SW,217,8.0,10.0,51,0.00,,---,0.00,535.00,VWS V14.01,2013-10-01 15:44:00,
2013-10-01 10:49:00,73.3,53.6,29.70,SW,220,3.0,8.0,50,0.00,,---,0.00,545.00,VWS V14.01,2013-10-01 15:49:00,
2013-10-01 10:54:00,74.0,54.7,29.70,SW,219,7.0,8.0,51,0.00,,---,0.00,512.00,VWS V14.01,2013-10-01 15:54:00,
2013-10-01 10:59:00,74.7,54.3,29.70,SW,220,12.0,12.0,49,0.00,,---,0.00,570.00,VWS V14.01,2013-10-01 15:59:00,
2013-10-01 11:04:00,75.1,54.1,29.70,North,349,9.0,12.0,48,0.00,,---,0.00,581.00,VWS V14.01,2013-10-01 16:04:00,
2013-10-01 11:09:00,75.6,54.0,29.70,SSW,193,10.0,13.0,47,0.00,,---,0.00,582.00,VWS V14.01,2013-10-01 16:09:00,
2013-10-01 11:14:00,76.0,53.8,29.69,SW,217,7.0,12.0,46,0.00,,---,0.00,593.00,VWS V14.01,2013-10-01 16:14:00,
2013-10-01 11:20:00,76.3,53.4,29.69,SW,222,8.0,12.0,45,0.00,,---,0.00,604.00,VWS V14.01,2013-10-01 16:20:00,
2013-10-01 11:25:00,77.2,54.2,29.69,SSW,192,6.0,15.0,45,0.00,,---,0.00,614.00,VWS V14.01,2013-10-01 16:25:00,
2013-10-01 11:30:00,77.4,53.8,29.69,North,353,12.0,18.0,44,0.00,,---,0.00,625.00,VWS V14.01,2013-10-01 16:30:00,
2013-10-01 11:32:00,77.4,53.8,29.69,South,189,14.0,18.0,44,0.00,,---,0.00,626.00,VWS V14.01,2013-10-01 16:32:00,
2013-10-01 11:37:00,77.4,53.2,29.69,SW,227,17.0,17.0,43,0.00,,---,0.00,635.00,VWS V14.01,2013-10-01 16:37:00,
2013-10-01 11:42:00,77.4,53.8,29.69,SSW,193,18.0,19.0,44,0.00,,---,0.00,649.00,VWS V14.01,2013-10-01 16:42:00,
2013-10-01 11:47:00,77.9,54.9,29.69,SW,217,13.0,14.0,45,0.00,,---,0.00,655.00,VWS V14.01,2013-10-01 16:47:00,
2013-10-01 11:52:00,78.1,53.8,29.69,SW,219,8.0,16.0,43,0.00,,---,0.00,665.00,VWS V14.01,2013-10-01 16:52:00,
2013-10-01 11:57:00,78.6,54.3,29.69,NNW,346,8.0,14.0,43,0.00,,---,0.00,670.00,VWS V14.01,2013-10-01 16:57:00,
2013-10-01 12:02:00,78.8,53.8,29.69,SW,217,14.0,14.0,42,0.00,,---,0.00,679.00,VWS V14.01,2013-10-01 17:02:00,
2013-10-01 12:08:00,79.0,53.3,29.69,SW,219,14.0,19.0,41,0.00,,---,0.00,679.00,VWS V14.01,2013-10-01 17:08:00,
2013-10-01 12:13:00,79.2,53.5,29.69,WSW,241,14.0,21.0,41,0.00,,---,0.00,679.00,VWS V14.01,2013-10-01 17:13:00,
2013-10-01 12:18:00,79.2,53.5,29.69,SW,229,9.0,16.0,41,0.00,,---,0.00,681.00,VWS V14.01,2013-10-01 17:18:00,
2013-10-01 12:23:00,79.2,53.5,29.69,WSW,247,10.0,16.0,41,0.00,,---,0.00,686.00,VWS V14.01,2013-10-01 17:23:00,
2013-10-01 12:28:00,79.6,54.5,29.69,WSW,244,11.0,17.0,42,0.00,,---,0.00,684.00,VWS V14.01,2013-10-01 17:28:00,
2013-10-01 12:34:00,79.6,53.8,29.69,WSW,243,10.0,15.0,41,0.00,,---,0.00,681.00,VWS V14.01,2013-10-01 17:34:00,
2013-10-01 12:39:00,79.8,54.7,29.69,WSW,241,12.0,16.0,42,0.00,,---,0.00,46.00,VWS V14.01,2013-10-01 17:39:00,
2013-10-01 12:44:00,80.3,55.1,29.69,WSW,248,8.0,12.0,42,0.00,,---,0.00,55.00,VWS V14.01,2013-10-01 17:44:00,
2013-10-01 12:49:00,80.7,54.8,29.68,South,191,6.0,13.0,41,0.00,,---,0.00,227.00,VWS V14.01,2013-10-01 17:49:00,
2013-10-01 12:54:00,80.9,55.0,29.68,SW,233,2.0,11.0,41,0.00,,---,0.00,225.00,VWS V14.01,2013-10-01 17:54:00,
2013-10-01 12:59:00,81.2,54.6,29.68,SW,227,6.0,17.0,40,0.00,,---,0.00,93.00,VWS V14.01,2013-10-01 17:59:00,
2013-10-01 13:04:00,81.6,54.3,29.68,SW,217,11.0,15.0,39,0.00,,---,0.00,127.00,VWS V14.01,2013-10-01 18:04:00,
2013-10-01 13:09:00,81.2,53.2,29.68,WSW,241,5.0,14.0,38,0.00,,---,0.00,88.00,VWS V14.01,2013-10-01 18:09:00,
2013-10-01 13:14:00,81.4,54.1,29.68,SSE,150,6.0,12.0,39,0.00,,---,0.00,42.00,VWS V14.01,2013-10-01 18:14:00,
2013-10-01 13:19:00,81.6,55.0,29.68,North,359,6.0,11.0,40,0.00,,---,0.00,42.00,VWS V14.01,2013-10-01 18:19:00,
2013-10-01 13:24:00,81.8,55.1,29.68,SW,222,13.0,13.0,40,0.00,,---,0.00,42.00,VWS V14.01,2013-10-01 18:24:00,
2013-10-01 13:30:00,82.2,54.8,29.68,WSW,244,8.0,12.0,39,0.00,,---,0.00,118.00,VWS V14.01,2013-10-01 18:30:00,
2013-10-01 13:35:00,82.2,55.5,29.68,SW,219,8.0,16.0,40,0.00,,---,0.00,537.00,VWS V14.01,2013-10-01 18:35:00,
2013-10-01 13:40:00,82.4,55.7,29.68,SW,217,7.0,10.0,40,0.00,,---,0.00,614.00,VWS V14.01,2013-10-01 18:40:00,
2013-10-01 13:45:00,82.8,55.3,29.67,SE,138,6.0,16.0,39,0.00,,---,0.00,670.00,VWS V14.01,2013-10-01 18:45:00,
2013-10-01 13:50:00,82.8,56.0,29.67,SSE,152,4.0,13.0,40,0.00,,---,0.00,635.00,VWS V14.01,2013-10-01 18:50:00,
2013-10-01 13:55:00,83.2,55.7,29.67,SSE,165,6.0,14.0,39,0.00,,---,0.00,333.00,VWS V14.01,2013-10-01 18:55:00,
2013-10-01 14:00:00,83.4,56.6,29.67,NNW,330,8.0,19.0,40,0.00,,---,0.00,62.00,VWS V14.01,2013-10-01 19:00:00,
2013-10-01 14:05:00,83.2,55.7,29.67,South,191,8.0,17.0,39,0.00,,---,0.00,55.00,VWS V14.01,2013-10-01 19:05:00,
2013-10-01 14:10:00,82.8,55.3,29.67,SW,223,1.0,2.0,39,0.00,,---,0.00,60.00,VWS V14.01,2013-10-01 19:10:00,
2013-10-01 14:15:00,83.4,55.2,29.66,SSW,209,13.0,13.0,38,0.00,,---,0.00,171.00,VWS V14.01,2013-10-01 19:15:00,
2013-10-01 14:20:00,83.8,55.5,29.66,SSE,160,7.0,7.0,38,0.00,,---,0.00,326.00,VWS V14.01,2013-10-01 19:20:00,
2013-10-01 14:25:00,83.8,54.8,29.66,SSW,192,0.0,0.0,37,0.00,,---,0.00,354.00,VWS V14.01,2013-10-01 19:25:00,
2013-10-01 14:30:00,84.1,55.8,29.65,SSE,151,7.0,11.0,38,0.00,,---,0.00,563.00,VWS V14.01,2013-10-01 19:30:00,
2013-10-01 14:35:00,84.3,55.2,29.65,SE,144,5.0,7.0,37,0.00,,---,0.00,465.00,VWS V14.01,2013-10-01 19:35:00,
2013-10-01 14:41:00,84.3,56.7,29.65,SE,130,3.0,9.0,39,0.00,,---,0.00,630.00,VWS V14.01,2013-10-01 19:41:00,
2013-10-01 14:46:00,84.3,56.7,29.65,SSW,195,14.0,16.0,39,0.00,,---,0.00,658.00,VWS V14.01,2013-10-01 19:46:00,
2013-10-01 14:51:00,84.7,56.3,29.65,SSW,192,7.0,10.0,38,0.00,,---,0.00,651.00,VWS V14.01,2013-10-01 19:51:00,
2013-10-01 14:56:00,84.9,57.2,29.65,North,353,7.0,9.0,39,0.00,,---,0.00,644.00,VWS V14.01,2013-10-01 19:56:00,
2013-10-01 15:01:00,85.1,56.7,29.65,SSE,151,8.0,14.0,38,0.00,,---,0.00,639.00,VWS V14.01,2013-10-01 20:01:00,
2013-10-01 15:06:00,85.5,57.0,29.65,SSE,162,8.0,14.0,38,0.00,,---,0.00,628.00,VWS V14.01,2013-10-01 20:06:00,
2013-10-01 15:11:00,85.3,56.1,29.65,SSE,161,6.0,7.0,37,0.00,,---,0.00,614.00,VWS V14.01,2013-10-01 20:11:00,
2013-10-01 15:16:00,85.1,56.7,29.65,SSE,155,2.0,4.0,38,0.00,,---,0.00,604.00,VWS V14.01,2013-10-01 20:16:00,
2013-10-01 15:21:00,85.3,55.3,29.65,SE,145,7.0,8.0,36,0.00,,---,0.00,491.00,VWS V14.01,2013-10-01 20:21:00,
2013-10-01 15:27:00,85.3,56.1,29.65,SSE,164,2.0,10.0,37,0.00,,---,0.00,586.00,VWS V14.01,2013-10-01 20:27:00,
2013-10-01 15:32:00,85.5,56.3,29.64,South,175,11.0,14.0,37,0.00,,---,0.00,577.00,VWS V14.01,2013-10-01 20:32:00,
2013-10-01 15:37:00,85.5,56.3,29.64,SE,145,8.0,12.0,37,0.00,,---,0.00,565.00,VWS V14.01,2013-10-01 20:37:00,
2013-10-01 15:42:00,85.5,57.0,29.64,SSW,192,6.0,10.0,38,0.00,,---,0.00,556.00,VWS V14.01,2013-10-01 20:42:00,
2013-10-01 15:47:00,85.5,56.3,29.64,SSE,162,9.0,12.0,37,0.00,,---,0.00,547.00,VWS V14.01,2013-10-01 20:47:00,
2013-10-01 15:53:00,85.5,56.3,29.64,SE,145,3.0,7.0,37,0.00,,---,0.00,535.00,VWS V14.01,2013-10-01 20:53:00,
2013-10-01 15:58:00,85.7,56.5,29.64,SSE,152,3.0,6.0,37,0.00,,---,0.00,523.00,VWS V14.01,2013-10-01 20:58:00,
2013-10-01 16:03:00,85.9,56.6,29.63,SE,133,5.0,12.0,37,0.00,,---,0.00,512.00,VWS V14.01,2013-10-01 21:03:00,
2013-10-01 16:08:00,86.3,57.0,29.63,SSW,196,6.0,11.0,37,0.00,,---,0.00,491.00,VWS V14.01,2013-10-01 21:08:00,
2013-10-01 16:13:00,86.1,56.8,29.63,SSW,195,8.0,12.0,37,0.00,,---,0.00,479.00,VWS V14.01,2013-10-01 21:13:00,
2013-10-01 16:18:00,85.7,56.5,29.63,SSE,151,8.0,11.0,37,0.00,,---,0.00,463.00,VWS V14.01,2013-10-01 21:18:00,
2013-10-01 16:24:00,85.9,56.6,29.63,SE,140,10.0,13.0,37,0.00,,---,0.00,450.00,VWS V14.01,2013-10-01 21:24:00,
2013-10-01 16:29:00,85.9,56.6,29.63,SSE,168,9.0,16.0,37,0.00,,---,0.00,435.00,VWS V14.01,2013-10-01 21:29:00,
2013-10-01 16:34:00,86.3,57.7,29.63,SSW,193,4.0,11.0,38,0.00,,---,0.00,417.00,VWS V14.01,2013-10-01 21:34:00,
2013-10-01 16:39:00,86.1,57.5,29.63,SSE,154,11.0,16.0,38,0.00,,---,0.00,406.00,VWS V14.01,2013-10-01 21:39:00,
2013-10-01 16:44:00,85.9,57.4,29.63,SSE,162,11.0,16.0,38,0.00,,---,0.00,403.00,VWS V14.01,2013-10-01 21:44:00,
2013-10-01 16:49:00,85.7,57.2,29.63,SE,126,10.0,15.0,38,0.00,,---,0.00,382.00,VWS V14.01,2013-10-01 21:49:00,
2013-10-01 16:54:00,85.7,57.2,29.63,South,172,4.0,12.0,38,0.00,,---,0.00,368.00,VWS V14.01,2013-10-01 21:54:00,
2013-10-01 16:59:00,85.7,58.6,29.63,South,174,7.0,10.0,40,0.00,,---,0.00,354.00,VWS V14.01,2013-10-01 21:59:00,
2013-10-01 17:05:00,85.9,57.4,29.63,WSW,241,3.0,18.0,38,0.00,,---,0.00,338.00,VWS V14.01,2013-10-01 22:05:00,
2013-10-01 17:10:00,85.7,57.2,29.63,NNW,340,7.0,14.0,38,0.00,,---,0.00,317.00,VWS V14.01,2013-10-01 22:10:00,
2013-10-01 17:15:00,85.5,57.0,29.63,WSW,241,6.0,14.0,38,0.00,,---,0.00,296.00,VWS V14.01,2013-10-01 22:15:00,
2013-10-01 17:20:00,85.5,57.7,29.63,North,354,8.0,9.0,39,0.00,,---,0.00,283.00,VWS V14.01,2013-10-01 22:20:00,
2013-10-01 17:25:00,85.5,57.0,29.63,SSE,167,6.0,11.0,38,0.00,,---,0.00,267.00,VWS V14.01,2013-10-01 22:25:00,
2013-10-01 17:30:00,85.3,56.8,29.64,NNW,333,6.0,6.0,38,0.00,,---,0.00,253.00,VWS V14.01,2013-10-01 22:30:00,
2013-10-01 17:35:00,85.1,57.4,29.64,SE,138,11.0,11.0,39,0.00,,---,0.00,236.00,VWS V14.01,2013-10-01 22:35:00,
2013-10-01 17:41:00,84.9,57.9,29.64,SSE,162,5.0,11.0,40,0.00,,---,0.00,229.00,VWS V14.01,2013-10-01 22:41:00,
2013-10-01 17:46:00,84.7,57.0,29.64,NNW,346,11.0,14.0,39,0.00,,---,0.00,213.00,VWS V14.01,2013-10-01 22:46:00,
2013-10-01 17:51:00,84.5,57.5,29.64,NNW,342,8.0,8.0,40,0.00,,---,0.00,197.00,VWS V14.01,2013-10-01 22:51:00,
2013-10-01 17:56:00,84.3,56.7,29.64,NW,312,6.0,11.0,39,0.00,,---,0.00,183.00,VWS V14.01,2013-10-01 22:56:00,
2013-10-01 18:01:00,84.3,57.4,29.64,NW,320,5.0,11.0,40,0.00,,---,0.00,162.00,VWS V14.01,2013-10-01 23:01:00,
2013-10-01 18:06:00,84.0,57.8,29.64,NNW,343,7.0,8.0,41,0.00,,---,0.00,151.00,VWS V14.01,2013-10-01 23:06:00,
2013-10-01 18:11:00,83.6,57.4,29.64,SSE,155,7.0,12.0,41,0.00,,---,0.00,128.00,VWS V14.01,2013-10-01 23:11:00,
2013-10-01 18:16:00,83.4,57.3,29.64,South,169,8.0,11.0,41,0.00,,---,0.00,113.00,VWS V14.01,2013-10-01 23:16:00,
2013-10-01 18:20:00,83.2,57.8,29.64,North,0,7.0,7.0,42,0.00,,---,0.00,99.00,VWS V14.01,2013-10-01 23:20:00,
2013-10-01 18:25:00,82.8,58.0,29.64,SW,224,6.0,8.0,43,0.00,,---,0.00,88.00,VWS V14.01,2013-10-01 23:25:00,
2013-10-01 18:30:00,82.4,57.7,29.64,SW,229,6.0,12.0,43,0.00,,---,0.00,76.00,VWS V14.01,2013-10-01 23:30:00,
2013-10-01 18:35:00,82.0,58.0,29.64,South,182,7.0,10.0,44,0.00,,---,0.00,60.00,VWS V14.01,2013-10-01 23:35:00,
2013-10-01 18:40:00,81.6,58.8,29.64,North,349,5.0,7.0,46,0.00,,---,0.00,56.00,VWS V14.01,2013-10-01 23:40:00,
2013-10-01 18:45:00,81.1,59.6,29.65,South,186,8.0,10.0,48,0.00,,---,0.00,42.00,VWS V14.01,2013-10-01 23:45:00,
2013-10-01 18:51:00,80.7,59.2,29.65,South,186,9.0,9.0,48,0.00,,---,0.00,32.00,VWS V14.01,2013-10-01 23:51:00,
2013-10-01 18:56:00,80.3,59.4,29.65,NNW,346,6.0,8.0,49,0.00,,---,0.00,25.00,VWS V14.01,2013-10-01 23:56:00,
2013-10-01 19:01:00,79.8,59.5,29.65,South,174,7.0,7.0,50,0.00,,---,0.00,18.00,VWS V14.01,2013-10-02 00:01:00,
2013-10-01 19:06:00,79.2,59.5,29.65,WSW,247,7.0,7.0,51,0.00,,---,0.00,12.00,VWS V14.01,2013-10-02 00:06:00,
2013-10-01 19:11:00,78.5,60.0,29.65,SE,134,8.0,11.0,53,0.00,,---,0.00,5.00,VWS V14.01,2013-10-02 00:11:00,
2013-10-01 19:16:00,78.1,61.1,29.66,South,174,10.0,12.0,56,0.00,,---,0.00,5.00,VWS V14.01,2013-10-02 00:16:00,
2013-10-01 19:19:00,77.7,61.3,29.66,SW,223,7.0,12.0,57,0.00,,---,0.00,0.00,VWS V14.01,2013-10-02 00:19:00,
2013-10-01 19:24:00,77.4,61.5,29.66,WSW,258,12.0,12.0,58,0.00,,---,0.00,0.00,VWS V14.01,2013-10-02 00:24:00,
2013-10-01 19:29:00,77.0,61.6,29.66,NNW,344,9.0,12.0,59,0.00,,---,0.00,0.00,VWS V14.01,2013-10-02 00:29:00,
2013-10-01 19:34:00,76.5,61.6,29.66,NNW,339,10.0,11.0,60,0.00,,---,0.00,0.00,VWS V14.01,2013-10-02 00:34:00,
2013-10-01 19:39:00,76.1,61.7,29.66,WSW,240,6.0,11.0,61,0.00,,---,0.00,0.00,VWS V14.01,2013-10-02 00:39:00,
2013-10-01 19:44:00,75.6,61.7,29.67,North,359,10.0,12.0,62,0.00,,---,0.00,0.00,VWS V14.01,2013-10-02 00:44:00,
2013-10-01 19:50:00,75.3,61.4,29.67,SE,137,9.0,12.0,62,0.00,,---,0.00,0.00,VWS V14.01,2013-10-02 00:50:00,
2013-10-01 19:55:00,74.9,61.5,29.67,NW,311,7.0,11.0,63,0.00,,---,0.00,0.00,VWS V14.01,2013-10-02 00:55:00,
2013-10-01 20:00:00,74.4,61.0,29.67,North,0,8.0,11.0,63,0.00,,---,0.00,0.00,VWS V14.01,2013-10-02 01:00:00,
2013-10-01 20:05:00,74.0,61.1,29.67,NNW,346,8.0,11.0,64,0.00,,---,0.00,0.00,VWS V14.01,2013-10-02 01:05:00,
2013-10-01 20:10:00,73.7,60.8,29.67,North,359,10.0,12.0,64,0.00,,---,0.00,0.00,VWS V14.01,2013-10-02 01:10:00,
2013-10-01 20:15:00,73.3,60.4,29.67,NNW,332,10.0,12.0,64,0.00,,---,0.00,0.00,VWS V14.01,2013-10-02 01:15:00,
2013-10-01 20:20:00,73.2,60.7,29.67,SW,229,10.0,12.0,65,0.00,,---,0.00,0.00,VWS V14.01,2013-10-02 01:20:00,
2013-10-01 20:25:00,72.8,60.4,29.67,NNW,343,10.0,12.0,65,0.00,,---,0.00,0.00,VWS V14.01,2013-10-02 01:25:00,
2013-10-01 20:30:00,72.5,60.5,29.67,NNW,347,10.0,12.0,66,0.00,,---,0.00,0.00,VWS V14.01,2013-10-02 01:30:00,
2013-10-01 20:35:00,72.1,60.5,29.67,North,359,10.0,11.0,67,0.00,,---,0.00,0.00,VWS V14.01,2013-10-02 01:35:00,
2013-10-01 20:40:00,72.0,60.9,29.67,North,352,10.0,11.0,68,0.00,,---,0.00,0.00,VWS V14.01,2013-10-02 01:40:00,
2013-10-01 20:45:00,71.8,60.7,29.68,NNW,330,8.0,11.0,68,0.00,,---,0.00,0.00,VWS V14.01,2013-10-02 01:45:00,
2013-10-01 20:50:00,71.6,60.5,29.68,North,356,10.0,11.0,68,0.00,,---,0.00,0.00,VWS V14.01,2013-10-02 01:50:00,
2013-10-01 20:55:00,71.5,60.8,29.68,North,350,10.0,10.0,69,0.00,,---,0.00,0.00,VWS V14.01,2013-10-02 01:55:00,
2013-10-01 21:00:00,71.3,60.6,29.68,NNW,346,11.0,11.0,69,0.00,,---,0.00,0.00,VWS V14.01,2013-10-02 02:00:00,
2013-10-01 21:05:00,71.1,60.4,29.68,North,0,7.0,9.0,69,0.00,,---,0.00,0.00,VWS V14.01,2013-10-02 02:05:00,
2013-10-01 21:10:00,71.1,60.4,29.68,NNW,337,7.0,9.0,69,0.00,,---,0.00,0.00,VWS V14.01,2013-10-02 02:10:00,
2013-10-01 21:16:00,70.9,60.2,29.68,NNW,346,8.0,9.0,69,0.00,,---,0.00,0.00,VWS V14.01,2013-10-02 02:16:00,
2013-10-01 21:21:00,70.6,60.0,29.68,NW,304,10.0,10.0,69,0.00,,---,0.00,0.00,VWS V14.01,2013-10-02 02:21:00,
2013-10-01 21:26:00,70.6,60.0,29.68,NW,313,10.0,10.0,69,0.00,,---,0.00,0.00,VWS V14.01,2013-10-02 02:26:00,
2013-10-01 21:31:00,70.4,59.8,29.68,NW,306,8.0,11.0,69,0.00,,---,0.00,0.00,VWS V14.01,2013-10-02 02:31:00,
2013-10-01 21:36:00,70.1,59.9,29.68,North,353,11.0,11.0,70,0.00,,---,0.00,0.00,VWS V14.01,2013-10-02 02:36:00,
2013-10-01 21:41:00,70.1,60.3,29.68,North,359,11.0,12.0,71,0.00,,---,0.00,0.00,VWS V14.01,2013-10-02 02:41:00,
2013-10-01 21:46:00,69.9,60.1,29.68,NNW,344,11.0,12.0,71,0.00,,---,0.00,0.00,VWS V14.01,2013-10-02 02:46:00,
2013-10-01 21:51:00,69.9,60.1,29.68,WSW,239,11.0,12.0,71,0.00,,---,0.00,0.00,VWS V14.01,2013-10-02 02:51:00,
2013-10-01 21:56:00,69.9,60.1,29.68,North,356,11.0,11.0,71,0.00,,---,0.00,0.00,VWS V14.01,2013-10-02 02:56:00,
2013-10-01 22:01:00,69.8,60.0,29.68,WNW,301,9.0,11.0,71,0.00,,---,0.00,0.00,VWS V14.01,2013-10-02 03:01:00,
2013-10-01 22:06:00,69.6,59.8,29.68,SE,143,11.0,11.0,71,0.00,,---,0.00,0.00,VWS V14.01,2013-10-02 03:06:00,
2013-10-01 22:11:00,69.4,60.0,29.68,North,354,9.0,9.0,72,0.00,,---,0.00,0.00,VWS V14.01,2013-10-02 03:11:00,
2013-10-01 22:16:00,69.3,59.9,29.68,North,0,8.0,10.0,72,0.00,,---,0.00,0.00,VWS V14.01,2013-10-02 03:16:00,
2013-10-01 22:21:00,68.9,59.9,29.68,NW,305,6.0,8.0,73,0.00,,---,0.00,0.00,VWS V14.01,2013-10-02 03:21:00,
2013-10-01 22:26:00,68.8,59.8,29.68,North,354,7.0,8.0,73,0.00,,---,0.00,0.00,VWS V14.01,2013-10-02 03:26:00,
2013-10-01 22:31:00,68.6,60.0,29.68,SE,138,8.0,10.0,74,0.00,,---,0.00,0.00,VWS V14.01,2013-10-02 03:31:00,
2013-10-01 22:36:00,68.4,59.8,29.68,SE,145,7.0,10.0,74,0.00,,---,0.00,0.00,VWS V14.01,2013-10-02 03:36:00,
2013-10-01 22:42:00,68.3,60.1,29.68,North,350,10.0,10.0,75,0.00,,---,0.00,0.00,VWS V14.01,2013-10-02 03:42:00,
2013-10-01 22:47:00,68.3,60.1,29.68,North,352,11.0,12.0,75,0.00,,---,0.00,0.00,VWS V14.01,2013-10-02 03:47:00,
2013-10-01 22:52:00,68.4,60.2,29.68,North,359,11.0,13.0,75,0.00,,---,0.00,0.00,VWS V14.01,2013-10-02 03:52:00,
2013-10-01 22:57:00,68.6,60.4,29.68,North,354,11.0,14.0,75,0.00,,---,0.00,0.00,VWS V14.01,2013-10-02 03:57:00,
2013-10-01 23:01:00,68.6,60.4,29.68,WNW,287,12.0,12.0,75,0.00,,---,0.00,0.00,VWS V14.01,2013-10-02 04:01:00,
2013-10-01 23:02:00,68.6,60.4,29.68,NNW,346,10.0,12.0,75,0.00,,---,0.00,0.00,VWS V14.01,2013-10-02 04:02:00,
2013-10-01 23:04:00,68.6,60.4,29.68,North,0,11.0,12.0,75,0.00,,---,0.00,0.00,VWS V14.01,2013-10-02 04:04:00,
2013-10-01 23:09:00,68.6,60.4,29.68,North,349,10.0,13.0,75,0.00,,---,0.00,0.00,VWS V14.01,2013-10-02 04:09:00,
2013-10-01 23:14:00,68.6,60.4,29.68,West,264,11.0,13.0,75,0.00,,---,0.00,0.00,VWS V14.01,2013-10-02 04:14:00,
2013-10-01 23:19:00,68.4,60.2,29.68,North,0,12.0,13.0,75,0.00,,---,0.00,0.00,VWS V14.01,2013-10-02 04:19:00,
2013-10-01 23:24:00,68.3,60.5,29.68,North,352,12.0,13.0,76,0.00,,---,0.00,0.00,VWS V14.01,2013-10-02 04:24:00,
2013-10-01 23:29:00,68.3,60.5,29.68,NNW,340,13.0,13.0,76,0.00,,---,0.00,0.00,VWS V14.01,2013-10-02 04:29:00,
2013-10-01 23:34:00,68.1,60.6,29.68,North,349,10.0,13.0,77,0.00,,---,0.00,0.00,VWS V14.01,2013-10-02 04:34:00,
2013-10-01 23:39:00,67.9,60.4,29.68,NNW,347,10.0,13.0,77,0.00,,---,0.00,0.00,VWS V14.01,2013-10-02 04:39:00,
2013-10-01 23:44:00,67.8,60.7,29.68,North,0,12.0,13.0,78,0.00,,---,0.00,0.00,VWS V14.01,2013-10-02 04:44:00,
2013-10-01 23:49:00,67.8,60.7,29.68,North,357,11.0,13.0,78,0.00,,---,0.00,0.00,VWS V14.01,2013-10-02 04:49:00,
2013-10-01 23:55:00,67.9,60.8,29.68,North,354,9.0,13.0,78,0.00,,---,0.00,0.00,VWS V14.01,2013-10-02 04:55:00,